TimeCDT,TemperatureF,Dew PointF,Humidity,Sea Level PressureIn,VisibilityMPH,Wind Direction,Wind SpeedMPH,Gust SpeedMPH,PrecipitationIn,Events,Conditions,WindDirDegrees,DateUTC
12:55 AM,68.0,54.0,61,29.58,10.0,SSE,13.8,21.9,N/A,,Clear,150,2013-10-11 05:55:00
1:55 AM,66.9,54.0,63,29.60,10.0,SSE,20.7,27.6,N/A,,Clear,150,2013-10-11 06:55:00
2:55 AM,66.0,54.0,65,29.57,10.0,SE,13.8,23.0,N/A,,Clear,140,2013-10-11 07:55:00
3:55 AM,64.9,54.0,68,29.56,10.0,SSE,13.8,24.2,N/A,,Clear,150,2013-10-11 08:55:00
4:55 AM,63.0,54.0,72,29.50,10.0,SE,12.7,20.7,N/A,,Clear,130,2013-10-11 09:55:00
5:55 AM,64.0,54.0,70,29.47,10.0,SE,13.8,26.5,N/A,,Clear,130,2013-10-11 10:55:00
6:55 AM,63.0,54.0,72,29.49,10.0,SSE,19.6,26.5,0.00,Rain,Light Rain,150,2013-10-11 11:55:00
7:55 AM,61.0,55.0,81,29.48,10.0,SE,16.1,27.6,0.02,,Overcast,140,2013-10-11 12:55:00
8:55 AM,61.0,55.0,81,29.46,10.0,SE,16.1,26.5,N/A,,Clear,140,2013-10-11 13:55:00
9:52 AM,62.6,55.4,77,29.45,10.0,SSE,16.1,28.8,N/A,,Mostly Cloudy,150,2013-10-11 14:52:00
9:55 AM,62.1,55.0,78,29.43,10.0,SE,17.3,27.6,N/A,,Mostly Cloudy,140,2013-10-11 14:55:00
10:44 AM,64.4,55.4,73,29.41,10.0,SSE,20.7,36.8,N/A,,Scattered Clouds,150,2013-10-11 15:44:00
10:55 AM,66.0,55.0,68,29.39,10.0,SSE,19.6,34.5,N/A,,Scattered Clouds,150,2013-10-11 15:55:00
11:55 AM,66.9,52.0,59,29.36,10.0,SSE,16.1,36.8,N/A,,Mostly Cloudy,160,2013-10-11 16:55:00
12:55 PM,69.1,50.0,51,29.33,10.0,South,20.7,35.7,N/A,,Mostly Cloudy,180,2013-10-11 17:55:00
1:55 PM,70.0,43.0,38,29.35,10.0,SSW,31.1,44.9,N/A,,Scattered Clouds,200,2013-10-11 18:55:00
2:55 PM,69.1,44.1,40,29.36,10.0,SSW,18.4,35.7,N/A,,Mostly Cloudy,210,2013-10-11 19:55:00
3:55 PM,68.0,45.0,43,29.42,10.0,WSW,25.3,38.0,N/A,,Clear,240,2013-10-11 20:55:00
4:55 PM,63.0,46.9,56,29.48,10.0,WSW,27.6,39.1,N/A,,Partly Cloudy,240,2013-10-11 21:55:00
5:16 PM,60.8,48.2,63,29.53,10.0,WSW,21.9,32.2,N/A,,Mostly Cloudy,250,2013-10-11 22:16:00
5:55 PM,55.0,45.0,69,29.57,10.0,WSW,20.7,34.5,N/A,,Overcast,250,2013-10-11 22:55:00
6:55 PM,52.0,42.1,69,29.63,10.0,West,20.7,32.2,N/A,,Overcast,260,2013-10-11 23:55:00
7:55 PM,52.0,39.9,63,29.67,10.0,West,16.1,28.8,N/A,,Overcast,270,2013-10-12 00:55:00
8:55 PM,52.0,39.9,63,29.67,10.0,West,24.2,31.1,N/A,,Overcast,270,2013-10-12 01:55:00
9:55 PM,51.1,39.0,63,29.69,10.0,West,20.7,29.9,N/A,,Mostly Cloudy,270,2013-10-12 02:55:00
10:55 PM,51.1,39.0,63,29.73,10.0,West,13.8,21.9,N/A,,Mostly Cloudy,260,2013-10-12 03:55:00
11:55 PM,52.0,39.9,63,29.75,10.0,West,16.1,26.5,N/A,,Mostly Cloudy,280,2013-10-12 04:55:00